Location: ????
(55.5675°N, 37.6272°E)
Time: 06:29:25
(UTC+00:00)

CZ-2C R/B - Pass Details

Date: 14 April 2026
Orbit: 343 x 358 km, 97.7° (Epoch: 12 May)

Event Time Altitude Azimuth Distance (km) Brightness Sun altitude
Exits shadow 17:03:04 - 88° (E) 1,852 5.0 -4.8°
Enters shadow 17:59:47 -70° 164° (SSE) 12,373 9.6 -11.6°
Maximum altitude 18:35:40 65° 72° (ENE) 417 2.0 -15.5°
